• In Hungary
  • List of Countries
  • For 7 days
  • Water Temperature
  • Satellite Maps
  • Weather Map
  • News
  • Weather Widgets
  • user-avatar
    Login

    Hourly Weather Stavchany

    Today, 17 October, Tuesday

    Time Temperature Precipitation Wind Pressure Humidity
    00:00 +15°C° 0 mm 2 mps 752 mmHg 68%
    01:00 +15°C° 0 mm 2 mps 752 mmHg 71%
    02:00 +15°C° 0 mm 2 mps 752 mmHg 71%
    03:00 +14°C° 0 mm 2 mps 752 mmHg 72%
    04:00 +14°C° 0 mm 2 mps 752 mmHg 74%
    05:00 +14°C° 0 mm 2 mps 752 mmHg 75%
    06:00 +13°C° 0 mm 3 mps 752 mmHg 74%
    07:00 +13°C° 0 mm 3 mps 752 mmHg 73%
    08:00 +14°C° 0 mm 3 mps 752 mmHg 71%
    09:00 +17°C° 0 mm 3 mps 752 mmHg 65%
    10:00 +19°C° 0 mm 4 mps 752 mmHg 59%
    11:00 +21°C° 0 mm 4 mps 752 mmHg 53%
    12:00 +22°C° 0 mm 4 mps 752 mmHg 50%
    13:00 +23°C° 0 mm 4 mps 752 mmHg 48%
    14:00 +25°C° 0 mm 4 mps 751 mmHg 44%
    15:00 +24°C° 0 mm 3 mps 751 mmHg 48%
    16:00 +21°C° 0 mm 2 mps 751 mmHg 53%
    17:00 +20°C° 0 mm 2 mps 751 mmHg 58%
    18:00 +20°C° 0 mm 1 mps 751 mmHg 62%
    19:00 +19°C° 0 mm 1 mps 751 mmHg 66%
    20:00 +18°C° 0 mm 1 mps 751 mmHg 70%
    21:00 +16°C° 0 mm 1 mps 751 mmHg 71%
    22:00 +15°C° 0 mm 0 mps 751 mmHg 72%
    23:00 +15°C° 0 mm 0 mps 751 mmHg 74%

    Tomorrow, 18 October, Wednesday

    Time Temperature Precipitation Wind Pressure Humidity
    00:00 +15°C° 0 mm 1 mps 751 mmHg 74%
    01:00 +15°C° 0 mm 1 mps 750 mmHg 74%
    02:00 +15°C° 0 mm 1 mps 750 mmHg 75%
    03:00 +14°C° 0 mm 1 mps 750 mmHg 75%
    04:00 +14°C° 0 mm 1 mps 750 mmHg 75%
    05:00 +13°C° 0 mm 1 mps 749 mmHg 75%
    06:00 +14°C° 0 mm 1 mps 749 mmHg 73%
    07:00 +14°C° 0 mm 1 mps 749 mmHg 71%
    08:00 +15°C° 0 mm 1 mps 749 mmHg 69%
    09:00 +18°C° 0 mm 1 mps 749 mmHg 60%
    10:00 +20°C° 0 mm 1 mps 748 mmHg 52%
    11:00 +22°C° 0 mm 1 mps 748 mmHg 44%
    12:00 +23°C° 0 mm 1 mps 748 mmHg 41%
    13:00 +24°C° 0 mm 2 mps 747 mmHg 38%
    14:00 +26°C° 0 mm 2 mps 747 mmHg 35%
    15:00 +24°C° 0 mm 2 mps 747 mmHg 39%
    16:00 +23°C° 0 mm 1 mps 746 mmHg 42%
    17:00 +22°C° 0 mm 1 mps 746 mmHg 46%
    18:00 +21°C° 0 mm 1 mps 746 mmHg 47%
    19:00 +20°C° 0 mm 1 mps 746 mmHg 49%
    20:00 +19°C° 0 mm 1 mps 746 mmHg 50%
    21:00 +19°C° 0 mm 1 mps 746 mmHg 51%
    22:00 +18°C° 0 mm 1 mps 746 mmHg 52%
    23:00 +18°C° 0 mm 1 mps 746 mmHg 53%

    Day after tomorrow, 19 October, Thursday

    Time Temperature Precipitation Wind Pressure Humidity
    00:00 +16°C° 0 mm 1 mps 746 mmHg 54%
    01:00 +16°C° 0 mm 1 mps 746 mmHg 55%
    02:00 +15°C° 0 mm 1 mps 746 mmHg 56%
    03:00 +15°C° 0 mm 1 mps 745 mmHg 57%
    04:00 +14°C° 0 mm 0 mps 745 mmHg 58%
    05:00 +13°C° 0 mm 0 mps 745 mmHg 59%
    06:00 +14°C° 0 mm 0 mps 745 mmHg 59%
    07:00 +14°C° 0 mm 0 mps 745 mmHg 58%
    08:00 +15°C° 0 mm 0 mps 745 mmHg 58%
    09:00 +16°C° 0 mm 0 mps 745 mmHg 53%
    10:00 +18°C° 0 mm 0 mps 745 mmHg 47%
    11:00 +20°C° 0 mm 0 mps 745 mmHg 42%
    12:00 +21°C° 0 mm 0 mps 745 mmHg 41%
    13:00 +24°C° 0 mm 1 mps 744 mmHg 39%
    14:00 +24°C° 0 mm 1 mps 744 mmHg 37%
    15:00 +23°C° 0 mm 1 mps 744 mmHg 41%
    16:00 +22°C° 0 mm 1 mps 744 mmHg 46%
    17:00 +21°C° 0 mm 1 mps 744 mmHg 50%
    18:00 +20°C° 0 mm 1 mps 744 mmHg 52%
    19:00 +19°C° 0 mm 1 mps 744 mmHg 54%
    20:00 +16°C° 0 mm 0 mps 744 mmHg 56%
    21:00 +18°C° 0 mm 1 mps 745 mmHg 58%
    22:00 +16°C° 0 mm 1 mps 745 mmHg 60%
    23:00 +16°C° 0 mm 1 mps 745 mmHg 61%

    20 October, Friday

    Time Temperature Precipitation Wind Pressure Humidity
    00:00 +15°C° 0 mm 1 mps 745 mmHg 63%
    01:00 +15°C° 0 mm 1 mps 745 mmHg 65%
    02:00 +14°C° 0 mm 1 mps 745 mmHg 67%
    03:00 +14°C° 0 mm 1 mps 745 mmHg 69%
    04:00 +13°C° 0 mm 1 mps 745 mmHg 71%
    05:00 +13°C° 0 mm 1 mps 745 mmHg 73%
    06:00 +13°C° 0 mm 1 mps 745 mmHg 72%
    07:00 +14°C° 0 mm 1 mps 746 mmHg 71%
    08:00 +14°C° 0 mm 1 mps 746 mmHg 70%
    09:00 +16°C° 0 mm 1 mps 746 mmHg 65%
    10:00 +19°C° 0 mm 1 mps 746 mmHg 59%
    11:00 +20°C° 0 mm 1 mps 746 mmHg 53%
    12:00 +21°C° 0 mm 1 mps 746 mmHg 51%
    13:00 +21°C° 0 mm 2 mps 746 mmHg 49%
    14:00 +23°C° 0 mm 2 mps 746 mmHg 47%
    15:00 +21°C° 0 mm 2 mps 746 mmHg 51%
    16:00 +20°C° 0 mm 2 mps 746 mmHg 55%
    17:00 +19°C° 0 mm 2 mps 746 mmHg 59%
    18:00 +18°C° 0 mm 2 mps 747 mmHg 64%
    19:00 +17°C° 0 mm 2 mps 747 mmHg 69%
    20:00 +16°C° 0 mm 3 mps 748 mmHg 74%
    21:00 +14°C° 0 mm 3 mps 748 mmHg 77%
    22:00 +13°C° 0 mm 3 mps 748 mmHg 80%
    23:00 +13°C° 0 mm 3 mps 748 mmHg 82%

    21 October, Saturday

    Time Temperature Precipitation Wind Pressure Humidity
    00:00 +12°C° 0 mm 3 mps 748 mmHg 83%
    01:00 +12°C° 0 mm 3 mps 749 mmHg 84%
    02:00 +11°C° 0 mm 3 mps 749 mmHg 85%
    03:00 +12°C° 0 mm 2 mps 749 mmHg 84%
    04:00 +10°C° 0 mm 2 mps 749 mmHg 83%
    05:00 +10°C° 0 mm 2 mps 749 mmHg 82%
    06:00 +10°C° 0 mm 2 mps 749 mmHg 78%
    07:00 +10°C° 0 mm 3 mps 749 mmHg 74%
    08:00 +11°C° 0 mm 3 mps 749 mmHg 70%
    09:00 +11°C° 0 mm 3 mps 749 mmHg 67%
    10:00 +12°C° 0 mm 3 mps 749 mmHg 63%
    11:00 +13°C° 0 mm 3 mps 749 mmHg 60%
    12:00 +13°C° 0 mm 3 mps 749 mmHg 58%
    13:00 +14°C° 0 mm 4 mps 748 mmHg 57%
    14:00 +14°C° 0 mm 4 mps 748 mmHg 55%
    15:00 +14°C° 0 mm 3 mps 748 mmHg 56%
    16:00 +13°C° 0 mm 3 mps 748 mmHg 57%
    17:00 +13°C° 0 mm 3 mps 748 mmHg 58%
    18:00 +12°C° 0 mm 3 mps 748 mmHg 58%
    19:00 +12°C° 0 mm 3 mps 749 mmHg 58%
    20:00 +11°C° 0 mm 3 mps 749 mmHg 58%
    21:00 +11°C° 0 mm 3 mps 749 mmHg 57%
    22:00 +11°C° 0 mm 3 mps 749 mmHg 57%
    23:00 +11°C° 0 mm 3 mps 749 mmHg 56%

    22 October, Sunday

    Time Temperature Precipitation Wind Pressure Humidity
    00:00 +11°C° 0 mm 3 mps 749 mmHg 56%
    01:00 +11°C° 0 mm 3 mps 749 mmHg 55%
    02:00 +10°C° 0 mm 4 mps 749 mmHg 54%
    03:00 +10°C° 0 mm 4 mps 749 mmHg 56%
    04:00 +9°C° 0 mm 3 mps 749 mmHg 57%
    05:00 +9°C° 0 mm 3 mps 749 mmHg 58%
    06:00 +9°C° 0 mm 3 mps 749 mmHg 59%
    07:00 +8°C° 0 mm 4 mps 749 mmHg 59%
    08:00 +8°C° 0 mm 4 mps 749 mmHg 59%
    09:00 +11°C° 0 mm 4 mps 749 mmHg 57%
    10:00 +12°C° 0 mm 4 mps 749 mmHg 56%
    11:00 +13°C° 0 mm 5 mps 749 mmHg 54%
    12:00 +14°C° 0 mm 5 mps 748 mmHg 53%
    13:00 +15°C° 0 mm 5 mps 748 mmHg 53%
    14:00 +15°C° 0 mm 6 mps 747 mmHg 52%
    15:00 +15°C° 0 mm 5 mps 747 mmHg 55%
    16:00 +14°C° 0 mm 5 mps 747 mmHg 57%
    17:00 +13°C° 0 mm 4 mps 747 mmHg 59%
    18:00 +13°C° 0 mm 4 mps 747 mmHg 58%
    19:00 +12°C° 0 mm 4 mps 747 mmHg 58%
    20:00 +11°C° 0 mm 4 mps 747 mmHg 57%
    21:00 +10°C° 0 mm 5 mps 747 mmHg 57%
    22:00 +10°C° 0 mm 5 mps 747 mmHg 57%
    23:00 +10°C° 0 mm 5 mps 747 mmHg 58%
    Show more